Omaha, IA

10:22 PM CST on December 12, 2017 (GMT -0600)
Eppley Airfield

Weather History for KOMA - October, 2011

Change the Weather History Date:

Friday, October 21, 2011

  Actual Average Record
Temperature  
Mean Temperature 51 °F 51 °F  
Max Temperature 69 °F 63 °F 90 °F (1947)
Min Temperature 33 °F 40 °F 20 °F (1913)
Degree Days  
Heating Degree Days 14 14  
Month to date heating degree days 148 221  
Since 1 July heating degree days 264 324  
Cooling Degree Days 0 0  
Month to date cooling degree days 45 12  
Year to date cooling degree days 1378 1109  
Moisture  
Dew Point 35 °F    
Average Humidity 60    
Maximum Humidity 89    
Minimum Humidity 30    
Precipitation  
Precipitation 0.00 in 0.07 in 1.18 in (1900)
Month to date precipitation 0.36 1.52  
Year to date precipitation 25.65 27.31  
Snow  
Snow 0.00 in 0.00 in - ()
Month to date snowfall 0.0 0.1  
Since 1 July snowfall 0.0 0.1  
Snow Depth 0.00 in    
Sea Level Pressure  
Sea Level Pressure 30.09 in    
Wind  
Wind Speed 4 mph (South)    
Max Wind Speed 12 mph    
Max Gust Speed 15 mph    
Visibility 10 miles    
Events      
T = Trace of Precipitation, MM = Missing Value Source: NWS Daily Summary

Daily Weather History Graph

Daily Weather History Graph

Search for Another Location

Airport or City:

Trip Planner

Search our weather history database for the weather conditions in past years. The results will help you decide how hot, cold, wet, or windy it might be!

Date:

Astronomy

Oct. 21, 2011 Rise Set
Actual Time 7:41 AM CDT 6:33 PM CDT
Civil Twilight 7:13 AM CDT 7:02 PM CDT
Nautical Twilight 6:41 AM CDT 7:34 PM CDT
Astronomical Twilight 6:09 AM CDT 8:06 PM CDT
Moon 1:29 AM CDT (10/21) 3:22 PM CDT (10/21)
Length of Visible Light 11h 48m
Length of Day
10h 52m
Waning Crescent, 33% of the Moon is Illuminated
Oct 21
Waning Crescent
Oct 26
New
Nov 2
First Quarter
Nov 10
Full
Nov 18
Last Quarter

Hourly Weather History & Observations

Time (CDT) Temp. Windchill Dew Point Humidity Pressure Visibility Wind Dir Wind Speed Gust Speed Precip Events Conditions
12:52 AM 37.9 °F - 32.0 °F 79% 30.09 in 10.0 mi Calm Calm - N/A   Clear
1:52 AM 37.0 °F - 32.0 °F 82% 30.10 in 10.0 mi Calm Calm - N/A   Clear
2:52 AM 35.1 °F 30.1 °F 30.9 °F 85% 30.12 in 10.0 mi SE 5.8 mph - N/A   Clear
3:52 AM 33.8 °F 29.6 °F 30.2 °F 87% 30.10 in 10.0 mi SSE 4.6 mph - N/A   Clear
4:52 AM 33.1 °F 27.7 °F 30.0 °F 89% 30.12 in 10.0 mi SE 5.8 mph - N/A   Clear
5:52 AM 34.0 °F 28.8 °F 30.9 °F 89% 30.13 in 10.0 mi SSE 5.8 mph - N/A   Clear
6:52 AM 35.6 °F 30.7 °F 32.0 °F 87% 30.11 in 10.0 mi SSE 5.8 mph - N/A   Scattered Clouds
7:52 AM 35.1 °F 28.6 °F 30.9 °F 85% 30.12 in 10.0 mi SSE 8.1 mph - N/A   Mostly Cloudy
8:52 AM 37.9 °F 33.5 °F 33.1 °F 83% 30.14 in 10.0 mi SSE 5.8 mph - N/A   Partly Cloudy
9:52 AM 44.6 °F 39.7 °F 33.8 °F 66% 30.11 in 10.0 mi SSE 9.2 mph - N/A   Partly Cloudy
10:52 AM 50.0 °F - 34.0 °F 54% 30.11 in 10.0 mi South 10.4 mph - N/A   Clear
11:52 AM 55.9 °F - 34.0 °F 44% 30.10 in 10.0 mi South 11.5 mph - N/A   Clear
12:52 PM 59.0 °F - 35.1 °F 41% 30.08 in 10.0 mi SW 8.1 mph - N/A   Clear
1:52 PM 63.0 °F - 36.0 °F 37% 30.06 in 10.0 mi Variable 5.8 mph - N/A   Clear
2:52 PM 66.9 °F - 37.0 °F 33% 30.04 in 10.0 mi Variable 3.5 mph - N/A   Clear
3:52 PM 68.0 °F - 36.0 °F 31% 30.04 in 10.0 mi West 5.8 mph - N/A   Partly Cloudy
4:52 PM 68.0 °F - 37.0 °F 32% 30.04 in 10.0 mi SSW 4.6 mph - N/A   Partly Cloudy
5:52 PM 66.9 °F - 37.0 °F 33% 30.04 in 10.0 mi SSW 3.5 mph - N/A   Scattered Clouds
6:52 PM 60.1 °F - 37.9 °F 44% 30.04 in 10.0 mi Calm Calm - N/A   Mostly Cloudy
7:52 PM 55.9 °F - 39.9 °F 55% 30.05 in 10.0 mi Calm Calm - N/A   Mostly Cloudy
8:52 PM 52.0 °F - 42.1 °F 69% 30.07 in 10.0 mi Calm Calm - N/A   Partly Cloudy
9:52 PM 50.0 °F - 44.6 °F 82% 30.07 in 10.0 mi Calm Calm - N/A   Partly Cloudy
10:52 PM 50.0 °F - 42.1 °F 74% 30.09 in 10.0 mi Calm Calm - N/A   Partly Cloudy
11:52 PM 46.9 °F - 42.1 °F 83% 30.09 in 10.0 mi Calm Calm - N/A   Mostly Cloudy